When you browse on this site, cookies collect data to enhance your experience and personalize the content and advertising you see.
Visit our Privacy Policy to learn more. By continuing to use the site, you agree to this use of cookies and data.
  • In Slovakia
  • List of Countries
  • For 7 days
  • Water Temperature
  • Weather Map
  • Weather Widgets
  • user-avatar
    Login

    Hourly Weather Ischgl

    Today, 27 January, Monday

    Time Temperature Precipitation Wind Pressure Humidity
    00:00 -9°C° 0 mm 1 mps 569 mmHg 91%
    01:00 -9°C° 0 mm 1 mps 569 mmHg 92%
    02:00 -9°C° 0 mm 1 mps 568 mmHg 92%
    03:00 -9°C° 0 mm 1 mps 568 mmHg 92%
    04:00 -10°C° 0 mm 1 mps 568 mmHg 92%
    05:00 -10°C° 0 mm 1 mps 568 mmHg 91%
    06:00 -10°C° 0 mm 1 mps 568 mmHg 90%
    07:00 -10°C° 0 mm 1 mps 568 mmHg 91%
    08:00 -9°C° 0 mm 1 mps 568 mmHg 87%
    09:00 -8°C° 0 mm 1 mps 569 mmHg 84%
    10:00 -6°C° 0 mm 1 mps 569 mmHg 81%
    11:00 -6°C° 0 mm 2 mps 569 mmHg 79%
    12:00 -5°C° 0 mm 2 mps 570 mmHg 77%
    13:00 -4°C° 0 mm 2 mps 570 mmHg 74%
    14:00 -4°C° 0 mm 2 mps 569 mmHg 76%
    15:00 -5°C° 0 mm 2 mps 569 mmHg 78%
    16:00 -6°C° 0 mm 2 mps 568 mmHg 80%
    17:00 -8°C° 0 mm 3 mps 567 mmHg 82%
    18:00 -9°C° 0 mm 3 mps 566 mmHg 83%
    19:00 -10°C° 0 mm 3 mps 566 mmHg 85%
    20:00 -10°C° 0 mm 3 mps 565 mmHg 86%
    21:00 -10°C° 0 mm 3 mps 565 mmHg 87%
    22:00 -10°C° 0 mm 3 mps 565 mmHg 87%
    23:00 -10°C° 0 mm 3 mps 564 mmHg 87%

    Tomorrow, 28 January, Tuesday

    Time Temperature Precipitation Wind Pressure Humidity
    00:00 -10°C° 0 mm 3 mps 564 mmHg 87%
    01:00 -10°C° 0 mm 3 mps 564 mmHg 87%
    02:00 -10°C° 0 mm 3 mps 563 mmHg 87%
    03:00 -12°C° 0 mm 3 mps 562 mmHg 87%
    04:00 -12°C° 0 mm 3 mps 562 mmHg 87%
    05:00 -12°C° 0.1 mm 3 mps 562 mmHg 89%
    06:00 -12°C° 0.1 mm 3 mps 561 mmHg 90%
    07:00 -10°C° 0.1 mm 2 mps 561 mmHg 92%
    08:00 -10°C° 0.1 mm 3 mps 561 mmHg 90%
    09:00 -9°C° 0.1 mm 3 mps 562 mmHg 89%
    10:00 -9°C° 0.1 mm 3 mps 562 mmHg 87%
    11:00 -8°C° 0.9 mm 3 mps 562 mmHg 87%
    12:00 -8°C° 0.9 mm 3 mps 562 mmHg 88%
    13:00 -8°C° 0.9 mm 3 mps 562 mmHg 88%
    14:00 -8°C° 1.1 mm 3 mps 561 mmHg 87%
    15:00 -9°C° 1.1 mm 3 mps 561 mmHg 87%
    16:00 -10°C° 1.1 mm 3 mps 561 mmHg 87%
    17:00 -12°C° 0.6 mm 3 mps 561 mmHg 88%
    18:00 -13°C° 0.6 mm 2 mps 560 mmHg 89%
    19:00 -14°C° 0.6 mm 2 mps 560 mmHg 90%
    20:00 -14°C° 0.7 mm 2 mps 560 mmHg 92%
    21:00 -12°C° 0.7 mm 1 mps 561 mmHg 93%
    22:00 -11°C° 0.7 mm 1 mps 561 mmHg 94%
    23:00 -13°C° 0.7 mm 2 mps 561 mmHg 94%

    Day after tomorrow, 29 January, Wednesday

    Time Temperature Precipitation Wind Pressure Humidity
    00:00 -13°C° 0.7 mm 2 mps 561 mmHg 94%
    01:00 -13°C° 0.7 mm 2 mps 561 mmHg 94%
    02:00 -13°C° 1.1 mm 2 mps 561 mmHg 93%
    03:00 -13°C° 1.1 mm 2 mps 561 mmHg 93%
    04:00 -13°C° 1.1 mm 2 mps 561 mmHg 93%
    05:00 -13°C° 1.3 mm 2 mps 562 mmHg 93%
    06:00 -13°C° 1.3 mm 2 mps 562 mmHg 93%
    07:00 -13°C° 1.3 mm 2 mps 563 mmHg 93%
    08:00 -13°C° 0.7 mm 2 mps 563 mmHg 92%
    09:00 -10°C° 0.7 mm 1 mps 564 mmHg 92%
    10:00 -10°C° 0.7 mm 1 mps 564 mmHg 91%
    11:00 -12°C° 0.5 mm 2 mps 564 mmHg 87%
    12:00 -10°C° 0.5 mm 2 mps 565 mmHg 82%
    13:00 -10°C° 0.5 mm 3 mps 565 mmHg 78%
    14:00 -12°C° 0.5 mm 3 mps 565 mmHg 82%
    15:00 -10°C° 0.5 mm 2 mps 565 mmHg 86%
    16:00 -10°C° 0.5 mm 2 mps 565 mmHg 90%
    17:00 -12°C° 0.5 mm 2 mps 565 mmHg 92%
    18:00 -13°C° 0.5 mm 2 mps 565 mmHg 93%
    19:00 -11°C° 0.5 mm 1 mps 566 mmHg 95%
    20:00 -13°C° 0.4 mm 2 mps 566 mmHg 95%
    21:00 -14°C° 0.4 mm 2 mps 566 mmHg 94%
    22:00 -14°C° 0.4 mm 2 mps 566 mmHg 94%
    23:00 -14°C° 0.2 mm 2 mps 566 mmHg 94%

    30 January, Thursday

    Time Temperature Precipitation Wind Pressure Humidity
    00:00 -15°C° 0.2 mm 2 mps 566 mmHg 94%
    01:00 -15°C° 0.2 mm 2 mps 566 mmHg 94%
    02:00 -16°C° 0 mm 2 mps 566 mmHg 93%
    03:00 -16°C° 0 mm 2 mps 566 mmHg 91%
    04:00 -17°C° 0 mm 2 mps 566 mmHg 90%
    05:00 -17°C° 0 mm 2 mps 566 mmHg 84%
    06:00 -16°C° 0 mm 2 mps 566 mmHg 78%
    07:00 -16°C° 0 mm 2 mps 566 mmHg 73%
    08:00 -14°C° 0 mm 2 mps 568 mmHg 71%
    09:00 -12°C° 0 mm 2 mps 569 mmHg 69%
    10:00 -9°C° 0 mm 2 mps 570 mmHg 67%
    11:00 -6°C° 0 mm 1 mps 570 mmHg 66%
    12:00 -4°C° 0 mm 1 mps 571 mmHg 65%
    13:00 -2°C° 0 mm 1 mps 571 mmHg 63%
    14:00 -3°C° 0 mm 1 mps 571 mmHg 65%
    15:00 -3°C° 0 mm 1 mps 570 mmHg 68%
    16:00 -3°C° 0 mm 1 mps 570 mmHg 70%
    17:00 -6°C° 0 mm 1 mps 570 mmHg 65%
    18:00 -7°C° 0 mm 1 mps 569 mmHg 60%
    19:00 -9°C° 0 mm 2 mps 568 mmHg 55%
    20:00 -9°C° 0 mm 2 mps 568 mmHg 52%
    21:00 -9°C° 0 mm 2 mps 568 mmHg 50%
    22:00 -10°C° 0 mm 2 mps 568 mmHg 48%
    23:00 -9°C° 0 mm 2 mps 568 mmHg 47%

    31 January, Friday

    Time Temperature Precipitation Wind Pressure Humidity
    00:00 -8°C° 0 mm 2 mps 569 mmHg 47%
    01:00 -8°C° 0 mm 2 mps 569 mmHg 47%
    02:00 -7°C° 0.1 mm 2 mps 569 mmHg 53%
    03:00 -7°C° 0.1 mm 2 mps 569 mmHg 59%
    04:00 -7°C° 0.1 mm 2 mps 569 mmHg 65%
    05:00 -6°C° 0.4 mm 2 mps 569 mmHg 74%
    06:00 -5°C° 0.4 mm 2 mps 570 mmHg 83%
    07:00 -3°C° 0.4 mm 1 mps 570 mmHg 92%
    08:00 -2°C° 0.3 mm 1 mps 571 mmHg 93%
    09:00 -1°C° 0.3 mm 1 mps 571 mmHg 95%
    10:00 0°C° 0.3 mm 1 mps 572 mmHg 97%
    11:00 0°C° 0.1 mm 1 mps 572 mmHg 98%
    12:00 0°C° 0.1 mm 1 mps 572 mmHg 98%
    13:00 0°C° 0.1 mm 1 mps 572 mmHg 99%
    14:00 0°C° 0 mm 1 mps 572 mmHg 99%
    15:00 0°C° 0 mm 1 mps 572 mmHg 99%
    16:00 0°C° 0 mm 1 mps 571 mmHg 98%
    17:00 -1°C° 0 mm 1 mps 572 mmHg 98%
    18:00 -1°C° 0 mm 1 mps 572 mmHg 97%
    19:00 -1°C° 0 mm 1 mps 572 mmHg 96%
    20:00 -2°C° 0 mm 1 mps 572 mmHg 96%
    21:00 -2°C° 0 mm 1 mps 572 mmHg 96%
    22:00 -2°C° 0 mm 1 mps 572 mmHg 95%
    23:00 -2°C° 0 mm 1 mps 572 mmHg 95%

    1 February, Saturday

    Time Temperature Precipitation Wind Pressure Humidity
    00:00 -2°C° 0 mm 1 mps 572 mmHg 95%
    01:00 -2°C° 0 mm 1 mps 572 mmHg 95%
    02:00 -2°C° 0 mm 1 mps 572 mmHg 95%
    03:00 -3°C° 0 mm 1 mps 571 mmHg 94%
    04:00 -3°C° 0 mm 1 mps 571 mmHg 94%
    05:00 -3°C° 0.1 mm 1 mps 571 mmHg 94%
    06:00 -4°C° 0.1 mm 1 mps 571 mmHg 93%
    07:00 -4°C° 0.1 mm 1 mps 571 mmHg 93%
    08:00 -3°C° 0 mm 1 mps 571 mmHg 94%
    09:00 -2°C° 0 mm 1 mps 572 mmHg 94%
    10:00 -1°C° 0 mm 1 mps 572 mmHg 94%
    11:00 -1°C° 0 mm 1 mps 573 mmHg 95%
    12:00 0°C° 0 mm 1 mps 573 mmHg 97%
    13:00 0°C° 0 mm 1 mps 573 mmHg 98%
    14:00 0°C° 0 mm 1 mps 573 mmHg 97%
    15:00 0°C° 0 mm 1 mps 573 mmHg 97%
    16:00 0°C° 0 mm 1 mps 573 mmHg 96%
    17:00 -1°C° 0.2 mm 1 mps 573 mmHg 95%
    18:00 -2°C° 0.2 mm 1 mps 572 mmHg 94%
    19:00 -2°C° 0.2 mm 1 mps 572 mmHg 94%
    20:00 -2°C° 0 mm 1 mps 572 mmHg 93%
    21:00 -2°C° 0 mm 1 mps 572 mmHg 93%
    22:00 -3°C° 0 mm 1 mps 572 mmHg 92%
    23:00 -3°C° 0 mm 1 mps 572 mmHg 90%
    Show more